Location: Unspecified
(0.0000°N, 0.0000°E)
Time: 09:06:42
(UTC+02:00)

Cosmos 2369 Rocket - Visible Passes

Search period start: 06 July 2015 00:00
Search period end: 16 July 2015 00:00
Orbit: 829 x 853 km, 71.0° (Epoch: 04 July)

Date Brightness Start Highest point End Pass type
(mag) Time Alt. Az. Time Alt. Az. Time Alt. Az.
06 Jul 4.9 06:39:50 10° SE 06:42:02 13° ESE 06:44:40 10° E visible
06 Jul 5.1 21:08:52 10° W 21:10:30 11° WSW 21:11:35 10° WSW visible
07 Jul 4.9 06:25:03 10° SE 06:26:43 12° ESE 06:28:52 10° E visible
07 Jul 5.0 20:52:53 10° W 20:55:11 12° WSW 20:57:00 10° SW visible
08 Jul 5.0 06:10:30 10° ESE 06:11:24 11° ESE 06:12:48 10° E visible
08 Jul 5.0 20:37:05 10° W 20:39:51 13° WSW 20:42:11 10° SW visible
09 Jul 2.4 07:34:43 10° SSW 07:40:08 52° WNW 07:45:32 10° N visible
10 Jul 2.3 07:19:22 10° SSW 07:24:50 56° WNW 07:30:17 10° N visible
11 Jul 2.2 07:04:12 11° SSW 07:09:32 61° WNW 07:15:02 10° N visible
12 Jul 2.1 06:50:17 19° SSW 06:54:15 67° WNW 06:59:46 10° N visible
13 Jul 2.1 06:36:20 32° SSW 06:38:57 72° WNW 06:44:30 10° N visible
14 Jul 2.0 06:22:21 54° SSW 06:23:39 78° WNW 06:29:14 10° NNE visible
15 Jul 2.0 06:08:17 84° W 06:08:21 85° WNW 06:13:57 10° NNE visible
